Flag for U.S.A. Weather past 2 weeks in Oakland, California, U.S.A.

Now
59 °F

Clear.


Feels Like: 59 °F
Forecast: 48 / 68 °F
Wind: No wind

Location: Metro Oakland International Airport

Current Time: Mar 5, 2015 at 10:47:26 PM

Latest Report: Mar 5, 2015 at 9:53 PM


Visibility: 10 mi

Pressure: 30.29 "Hg

Humidity: 58%

Dew point: 44 °F

Location of OaklandLocation

Historic Weather in Oakland — Graph

°F

Oakland temperature yesterday

Maximum temperature yesterday: 66 °F (at 2:53 PM)
Minimum temperature yesterday: 42 °F (at 6:53 AM)
Average temperature yesterday: 54 °F

Past Weeks' High & Low Weather Summary

 TemperatureHumidityPressure
High70 °F (Mar 5, 2:53 PM)100% (Feb 22, 7:53 AM)30.36 "Hg (Feb 22, 7:53 AM)
Low40 °F (Feb 24, 3:53 AM)18% (Feb 23, 8:53 AM)29.72 "Hg (Feb 28, 3:53 AM)
Average55 °F67%30.02 "Hg
* Reported Feb 18 9:53 PM — Mar 5 9:53 PM, Oakland, Weather by CustomWeather, © 2015

Note: Actual official high and low records may vary slightly from our data, if they occured in-between our weather recording intervals... More about our weather records

Advertising

Oakland weather history for previous 24 hours

 ConditionsComfort  
Time TempWeatherWind HumidityBarometerVisibility
9:53 PM
Thu, Mar 5
59 °FClear.No wind58%30.29 "Hg10 mi
8:53 PM60 °FClear.No wind62%30.28 "Hg10 mi
7:53 PM59 °FClear.3 mph44%30.27 "Hg10 mi
6:53 PM61 °FClear.6 mph41%30.27 "Hg10 mi
5:53 PM64 °FSunny.8 mph40%30.25 "Hg10 mi
4:53 PM65 °FSunny.13 mph49%30.25 "Hg10 mi
3:53 PM68 °FSunny.12 mph38%30.26 "Hg10 mi
2:53 PM70 °FSunny.8 mph41%30.27 "Hg10 mi
1:53 PM68 °FSunny.9 mph39%30.28 "Hg10 mi
12:53 PM64 °FSunny.8 mph45%30.30 "Hg10 mi
11:53 AM60 °FSunny.8 mph56%30.33 "Hg10 mi
10:53 AM58 °FSunny.6 mph56%30.34 "Hg10 mi
9:53 AM57 °FSunny.6 mph64%30.34 "Hg10 mi
8:53 AM56 °FSunny.3 mph58%30.34 "Hg10 mi
7:53 AM50 °FSunny.No wind74%30.32 "Hg10 mi
6:53 AM45 °FSunny.No wind74%30.29 "Hg10 mi
5:53 AM44 °FClear.No wind76%30.27 "Hg10 mi
4:53 AM46 °FClear.No wind71%30.26 "Hg10 mi
3:53 AM45 °FClear.3 mph71%30.24 "Hg10 mi
2:53 AM45 °FClear.5 mph71%30.23 "Hg10 mi
1:53 AM47 °FClear.3 mph66%30.24 "Hg10 mi
12:53 AM49 °FClear.No wind64%30.23 "Hg10 mi
11:53 PM
Wed, Mar 4
51 °FClear.No wind61%30.22 "Hg10 mi
10:53 PM52 °FClear.3 mph59%30.22 "Hg10 mi
Weather by CustomWeather, © 2015

See weather overviewHow to use our weather pages